Probability
0 0 0 0 0 0 0 0 0 0 0 0 0 0 0 0 0 0 0 0 0 0 0 0 0 0 0 0 0 0 0 0 0 0 0 0 0 0
0 0 0 0 0 0 0 0 0 0 0 0 0 0 0 0 0 0 0 0 0 0 0 0 0 0 0 0 0 0 0 0 0 0 0 0 0 0
0 0 0 0 0 0 0 0 0 0 0 0 0 0 0 0 0 0 0 0 0 0 0 0 0 0 0 0 0 0 0 0 0 0 0 0 0 0
3 3 0 0 0 0 0 0 0 0 0 0 0 0 0 0 0 0 0 0 0 0 0 0 0 0 0 0 0 0 0 0 0 0 0 0 0 0
3 3 3 3 0 0 0 0 0 0 0 0 0 0 0 0 0 0 0 0 0 0 0 0 0 0 0 0 0 0 0 0 0 0 0 0 0 0
3 3 3 3 3 3 0 0 0 0 0 0 0 0 0 0 0 0 0 0 0 0 0 0 0 0 0 0 0 0 0 0 0 0 0 0 0 0
3 3 3 3 3 0 0 0 0 0 0 0 0 0 0 0 0 0 0 0 0 0 0 0 0 0 0 0 0 0 0 0 0 0 0 0 0 0
6 3 3 3 0 0 0 0 0 0 0 0 0 0 0 0 0 0 0 0 0 0 0 0 0 0 0 0 0 0 0 0 0 0 0 0 0 0
3 3 3 3 0 3 0 0 0 0 0 0 0 0 0 0 0 0 0 0 0 0 0 0 0 0 0 0 0 0 0 0 0 0 0 0 0 0
3 3 3 3 3 3 3 3 0 0 0 0 0 0 0 0 0 0 0 0 0 0 0 0 0 0 0 0 0 0 0 0 0 0 0 0 0 0
0 3 3 3 3 0 0 3 3 3 0 0 0 0 0 0 0 0 0 0 0 0 0 0 0 0 0 0 0 0 0 0 0 0 0 0 0 0
0 0 0 0 0 0 0 0 3 3 3 0 0 0 0 0 0 0 0 0 0 0 0 0 0 0 0 0 0 0 0 0 0 0 0 0 0 0
0 0 0 0 0 0 0 0 0 0 3 3 3 0 0 0 0 0 0 0 0 0 0 0 0 0 0 0 0 0 0 0 0 0 0 0 0 0
0 0 0 0 0 0 0 0 0 0 0 0 0 0 0 0 0 0 0 0 0 0 0 0 0 0 0 0 0 0 0 0 0 0 0 0 0 0
0 0 0 0 0 0 0 0 0 0 0 0 0 0 0 0 0 0 0 0 0 0 0 0 0 0 0 0 0 0 0 0 0 0 0 0 0 0
0 0 0 0 0 0 0 0 0 0 0 0 0 0 0 0 0 0 0 0 0 0 0 0 0 0 0 0 0 0 0 0 0 0 0 0 0 0
0 0 0 0 0 0 0 0 0 0 0 0 0 0 0 0 0 0 0 0 0 0 0 0 0 0 0 0 0 0 0 0 0 0 0 0 0 0
0 0 0 0 0 0 0 0 0 0 0 0 0 0 0 0 0 0 0 0 0 0 0 0 0 0 0 0 0 0 0 0 0 0 0 0 0 0
0 0 0 0 0 0 0 0 0 0 0 0 0 0 0 0 0 0 0 0 0 0 0 0 0 0 0 0 0 0 0 0 0 0 0 0 0 0
0 0 0 0 0 0 0 0 0 0 0 0 0 0 0 0 0 0 0 0 0 0 0 0 0 0 0 0 0 0 0 0 0 0 0 0 0 0
0 0 0 0 0 0 0 0 0 0 0 0 0 0 0 0 0 0 0 0 0 0 0 0 0 0 0 0 0 0 0 0 0 0 0 0 0 0
0 0 0 0 0 0 0 0 0 0 0 0 0 0 0 0 0 0 0 0 0 0 0 0 0 0 0 0 0 0 0 0 0 0 0 0 0 0
0 0 0 0 0 0 0 0 0 0 0 0 0 0 0 0 0 0 0 0 0 0 0 0 0 0 0 0 0 0 0 0 0 0 0 0 0 0
Height
5887 5887 5887 5887 5887 5887 5887 5887 5887 5886 5886 5885 5885 5884 5883 5883 5882 5882 5881 5881 5880 5879 5879 5878 5878 5877 5876 5875 5874 5873 5873 5872 5871 5870 5869 5867 5866 5865
5883 5883 5883 5883 5883 5883 5882 5882 5882 5882 5881 5880 5880 5879 5878 5878 5877 5876 5876 5875 5874 5874 5873 5872 5871 5871 5870 5869 5868 5867 5866 5865 5864 5863 5861 5860 5859 5858
5878 5878 5878 5878 5877 5877 5877 5876 5876 5876 5875 5875 5874 5874 5873 5872 5871 5870 5869 5869 5868 5867 5866 5865 5864 5863 5862 5861 5860 5859 5858 5857 5856 5854 5853 5852 5851 5849
5873 5873 5872 5872 5871 5871 5871 5870 5870 5869 5869 5868 5868 5867 5866 5865 5864 5863 5862 5861 5860 5860 5859 5858 5856 5855 5854 5853 5852 5851 5849 5848 5846 5845 5844 5842 5841 5840
5867 5867 5866 5865 5865 5865 5865 5864 5864 5863 5862 5862 5861 5859 5858 5857 5857 5855 5854 5853 5852 5851 5850 5849 5847 5846 5845 5844 5842 5841 5840 5838 5836 5835 5833 5832 5830 5829
5862 5861 5860 5859 5859 5859 5858 5858 5857 5856 5855 5854 5853 5852 5851 5849 5849 5847 5846 5845 5843 5842 5840 5839 5838 5836 5835 5834 5832 5831 5829 5827 5825 5824 5822 5820 5818 5817
5856 5855 5854 5853 5852 5852 5851 5851 5850 5849 5848 5846 5845 5844 5843 5842 5840 5839 5837 5835 5834 5832 5831 5829 5827 5826 5824 5823 5821 5819 5818 5816 5814 5812 5810 5808 5806 5804
5849 5849 5848 5847 5846 5845 5844 5843 5843 5841 5840 5838 5837 5836 5834 5833 5831 5830 5828 5827 5825 5823 5821 5819 5817 5815 5813 5811 5809 5807 5806 5804 5801 5800 5798 5795 5793 5791
5843 5843 5842 5840 5839 5838 5837 5836 5835 5833 5832 5830 5829 5827 5826 5824 5822 5820 5818 5817 5815 5813 5811 5809 5806 5804 5802 5800 5797 5795 5794 5791 5789 5787 5785 5782 5780 5778
5837 5836 5835 5833 5832 5830 5829 5827 5826 5825 5823 5821 5820 5818 5816 5814 5812 5811 5808 5806 5804 5802 5800 5798 5795 5793 5790 5788 5786 5783 5781 5779 5777 5774 5772 5769 5767 5764
5830 5829 5828 5826 5825 5823 5821 5819 5818 5816 5814 5812 5810 5808 5806 5804 5802 5800 5798 5796 5793 5791 5788 5786 5784 5781 5779 5777 5774 5771 5769 5766 5764 5761 5758 5755 5753 5750
5823 5822 5820 5819 5817 5815 5813 5811 5809 5807 5805 5803 5800 5798 5796 5794 5791 5789 5787 5785 5782 5780 5777 5775 5772 5769 5767 5764 5761 5759 5756 5753 5750 5747 5744 5741 5738 5734
5816 5814 5813 5811 5809 5807 5805 5802 5800 5798 5796 5793 5791 5788 5786 5784 5781 5779 5776 5774 5771 5768 5766 5763 5760 5757 5754 5751 5748 5745 5742 5739 5735 5732 5729 5726 5722 5719
5809 5807 5805 5803 5801 5798 5796 5793 5791 5788 5786 5784 5781 5779 5776 5774 5771 5768 5765 5762 5759 5756 5753 5750 5747 5744 5741 5738 5735 5731 5728 5724 5721 5717 5713 5710 5707 5704
5801 5799 5797 5795 5792 5790 5787 5784 5782 5779 5777 5774 5771 5769 5766 5763 5760 5757 5754 5750 5747 5744 5741 5738 5735 5731 5728 5725 5721 5717 5714 5710 5706 5703 5699 5695 5692 5688
5793 5791 5788 5786 5784 5781 5778 5776 5773 5770 5767 5764 5761 5758 5755 5751 5748 5745 5741 5738 5735 5732 5728 5725 5721 5718 5714 5711 5707 5703 5700 5696 5692 5688 5684 5680 5677 5673
5785 5783 5780 5778 5775 5772 5769 5767 5764 5761 5757 5754 5751 5747 5744 5740 5736 5733 5729 5725 5722 5718 5715 5711 5708 5704 5701 5697 5694 5690 5687 5683 5679 5675 5671 5667 5663 5659
5777 5775 5772 5769 5767 5764 5761 5758 5754 5751 5747 5744 5740 5737 5733 5729 5725 5721 5717 5713 5710 5706 5703 5699 5695 5692 5688 5685 5681 5678 5674 5670 5666 5662 5658 5655 5651 5647
5769 5767 5764 5761 5758 5755 5752 5748 5745 5741 5738 5734 5730 5726 5722 5718 5714 5710 5706 5702 5698 5695 5691 5687 5684 5680 5677 5673 5669 5666 5662 5658 5655 5651 5647 5643 5639 5635
5761 5759 5756 5753 5750 5747 5743 5739 5736 5732 5728 5724 5720 5716 5712 5708 5704 5700 5696 5692 5688 5684 5680 5676 5673 5669 5666 5662 5659 5655 5651 5648 5644 5641 5637 5633 5629 5625
5754 5751 5748 5745 5741 5738 5734 5731 5727 5723 5719 5715 5711 5707 5702 5698 5694 5690 5686 5682 5678 5674 5670 5667 5663 5659 5655 5652 5649 5645 5641 5638 5634 5631 5627 5624 5620 5615
5746 5743 5739 5736 5732 5729 5725 5721 5718 5714 5710 5706 5702 5698 5693 5689 5685 5681 5677 5673 5669 5666 5662 5658 5654 5650 5647 5643 5639 5636 5632 5629 5625 5621 5618 5614 5610 5606
5738 5734 5731 5727 5724 5720 5717 5713 5709 5705 5701 5697 5693 5689 5685 5681 5677 5673 5669 5665 5661 5657 5653 5650 5646 5642 5639 5635 5631 5628 5624 5621 5617 5613 5610 5605 5602 5598
Wind_Speed
16 17 17 18 18 18 18 18 17 17 18 18 18 19 19 20 19 20 20 20 21 21 21 22 22 23 24 24 24 24 25 25 25 26 26 27 27 27
18 18 19 20 20 21 21 21 21 20 21 21 21 22 22 22 22 23 24 24 24 24 24 25 26 26 26 27 26 27 28 29 29 29 30 30 30 30
19 20 20 21 22 22 23 23 23 24 24 24 24 25 26 26 26 26 26 27 27 28 28 28 29 30 30 30 31 31 31 32 32 33 33 33 33 34
21 22 22 23 24 24 24 24 25 26 27 27 27 27 28 28 28 29 29 30 30 31 31 32 33 33 33 34 34 34 35 35 35 36 36 36 37 38
22 23 23 24 25 25 25 26 26 27 28 28 29 29 30 30 30 30 31 31 32 33 34 35 35 35 36 36 36 37 38 38 38 39 39 40 40 40
23 23 24 25 26 25 26 27 27 28 29 29 29 30 30 31 31 32 33 33 34 35 35 36 37 38 38 38 39 39 40 40 41 41 42 42 43 43
23 24 24 25 26 26 27 27 28 28 29 30 30 30 30 31 32 33 33 34 35 35 36 36 37 38 39 40 40 41 42 42 43 43 44 45 45 45
24 24 25 26 27 28 28 29 29 30 30 31 31 31 32 33 33 34 35 35 35 36 37 38 39 40 41 42 42 43 43 43 44 45 46 46 47 47
25 25 26 27 28 29 29 29 30 31 31 32 32 33 34 34 35 36 36 37 37 38 39 39 41 41 42 42 43 43 44 43 44 45 45 46 47 48
25 26 27 28 28 29 29 30 31 31 32 33 34 35 35 36 37 37 38 38 38 39 40 40 41 41 42 42 43 43 43 43 44 45 46 47 48 49
27 27 27 27 28 29 30 31 32 33 34 35 36 36 36 36 37 38 38 38 39 39 41 42 41 42 42 43 43 44 45 45 46 48 48 49 50 50
26 27 27 28 29 30 31 32 33 34 34 35 35 36 36 36 37 38 39 39 39 39 40 41 41 42 42 43 44 45 46 48 49 49 50 50 51 51
28 29 30 30 30 32 33 33 34 34 35 35 35 35 35 36 38 39 39 39 40 41 41 42 42 43 44 45 46 48 49 50 50 51 51 51 51 52
29 29 30 31 32 32 33 33 34 34 35 35 35 36 37 38 39 40 40 41 42 42 42 43 43 44 45 47 48 49 49 50 50 50 50 51 50 51
29 30 30 31 32 32 32 33 33 34 35 36 36 37 38 39 40 41 41 42 42 42 43 44 44 45 46 46 47 48 48 48 48 49 50 50 49 49
30 31 31 32 32 32 32 32 34 35 36 37 38 38 40 40 41 41 42 43 44 44 44 45 44 45 45 45 45 45 46 46 46 47 47 47 47 47
30 30 31 31 32 32 32 34 34 35 36 36 37 38 39 40 41 42 43 43 43 44 44 44 44 44 44 44 44 44 44 44 45 44 43 43 44 44
30 31 31 31 31 32 33 33 34 35 36 36 37 38 40 41 41 42 42 41 41 41 41 41 41 42 42 42 42 41 41 41 41 40 40 41 41 41
29 30 30 30 31 32 33 34 34 35 36 36 38 39 39 39 39 39 39 39 39 39 40 39 39 38 38 38 39 39 38 38 38 37 38 38 38 38
28 29 30 31 31 32 33 33 34 35 35 36 37 37 37 37 37 37 37 37 37 37 37 37 37 37 36 36 37 37 36 36 36 36 35 36 35 35
28 29 30 31 32 33 34 34 35 35 35 35 35 35 35 35 35 35 35 34 34 35 35 35 35 34 34 34 34 34 34 34 34 33 33 33 33 32
30 31 31 32 33 33 34 34 34 34 34 34 34 34 34 34 33 33 33 33 33 33 33 33 32 32 32 32 32 32 31 31 31 31 31 31 30 30
30 30 31 31 32 32 32 32 32 33 32 32 32 32 31 31 31 31 31 31 31 31 30 30 30 29 29 29 29 29 29 29 28 29 29 29 29 29
Wind_Direction
260 261 264 266 266 267 269 272 273 274 276 276 277 277 276 275 275 275 275 276 275 275 275 276 278 279 279 279 280 280 280 281 281 281 280 280 280 279
263 266 266 267 266 266 267 269 270 272 275 276 276 277 277 276 276 276 275 275 275 275 275 275 276 278 277 276 278 280 280 280 280 281 280 279 279 279
266 268 268 268 267 269 270 270 270 271 272 274 274 275 275 276 276 276 276 276 275 274 276 276 276 276 276 276 277 278 279 280 281 281 280 279 279 279
267 268 268 269 270 270 272 270 270 271 272 272 274 276 275 276 275 276 276 275 275 276 276 277 278 277 277 277 278 279 279 280 280 280 280 279 278 279
271 272 271 270 269 271 271 271 272 273 274 273 274 275 276 274 275 276 276 275 275 276 276 277 277 278 278 278 278 279 279 280 280 279 279 278 278 278
273 275 274 273 272 272 273 273 274 275 275 274 275 276 277 276 276 277 277 277 277 276 277 277 277 277 278 277 277 278 278 278 279 279 280 279 279 279
275 277 279 276 275 276 274 275 276 277 278 278 278 278 278 278 277 277 278 279 278 278 278 278 278 278 278 277 278 278 279 279 279 280 280 280 280 280
275 278 277 277 278 277 276 276 278 280 281 282 281 280 280 280 279 278 279 280 280 280 280 280 279 278 278 279 279 279 280 281 281 281 280 280 281 280
276 279 280 280 279 279 278 277 278 280 280 280 281 281 281 280 280 279 280 281 280 281 282 282 281 279 280 280 279 280 281 282 281 281 281 281 282 281
281 282 281 281 281 281 280 280 279 280 281 282 283 282 282 281 281 281 282 282 282 283 283 283 282 281 281 281 280 280 281 281 281 282 282 282 282 282
282 283 283 283 282 282 282 283 283 283 283 283 283 283 282 281 282 282 282 282 283 283 283 283 283 282 282 282 281 281 281 282 282 283 283 283 283 284
284 285 285 285 284 284 284 284 284 284 285 285 285 285 285 284 284 283 283 283 284 284 283 283 284 283 283 282 281 282 283 284 285 284 284 285 285 284
286 286 286 286 287 287 286 285 285 285 285 286 287 288 288 286 286 286 285 285 285 285 285 285 284 284 283 284 284 285 286 287 287 287 287 287 287 286
287 288 287 287 288 288 288 287 286 286 286 286 287 288 289 288 288 287 287 287 286 286 287 287 287 286 285 286 286 287 287 287 288 289 289 288 288 288
288 289 290 289 289 289 289 289 289 289 288 289 290 290 291 290 288 287 288 289 288 287 287 287 288 288 287 287 288 288 289 289 290 290 290 290 289 289
291 292 291 291 290 291 292 291 292 293 293 292 292 291 291 290 289 289 289 289 290 290 289 289 289 290 289 289 290 290 291 291 291 291 291 290 290 290
292 293 293 292 292 293 293 294 295 295 294 294 293 292 292 291 291 292 292 292 292 292 291 291 291 291 291 291 292 293 293 294 294 294 294 293 293 293
292 293 293 294 294 295 295 296 297 297 296 296 296 295 294 294 294 294 295 295 295 294 293 293 293 293 293 293 294 296 296 297 297 297 296 296 295 294
295 294 294 295 296 297 298 299 299 299 298 298 298 298 298 297 297 297 298 298 298 298 297 296 296 296 296 297 297 298 299 299 299 299 298 298 298 298
296 297 297 297 298 299 300 301 301 301 300 301 301 301 301 301 301 301 301 301 301 301 300 299 299 298 298 298 299 299 300 300 300 300 300 301 301 301
299 299 299 300 300 301 301 302 302 302 303 303 303 303 303 303 304 304 304 303 303 303 303 303 302 302 301 301 301 301 301 301 301 300 300 301 302 302
300 300 301 301 301 302 303 303 303 304 304 304 305 305 306 306 305 306 306 306 306 306 306 306 305 305 304 304 304 304 304 304 304 304 304 304 304 304
302 303 303 304 304 305 305 305 305 305 306 307 308 307 308 308 309 309 309 309 309 309 309 309 309 308 308 308 308 307 307 306 306 307 308 308 309 309